Tracking 19905 objects as of 17-Oct-2019
HD Live streaming from Space Station
objects crossing your sky now

SL-18 R/B

Track SL-18 R/B now!
10-day predictions


NORAD ID: 26703
Int'l Code: 2001-007B
Perigee: 582.4 km
Apogee: 586.8 km
Inclination: 97.7 °
Period: 96.2 minutes
Semi major axis: 6955 km
RCS: 2.4311 m2 (large)
Launch date: February 20, 2001
Source: Commonwealth of Independent States (former USSR) (CIS)
Launch site: Svobodny, Russia (SVOB)

Pakistan's microsatellite for development of surveillance capability.
Note: This is a ROCKET BODY
aabbcc
Your satellite tracking list
Your tracking list is empty




NASA's NSSDC Master Catalog

Two Line Element Set (TLE):
1 26703U 01007B   19290.20429432 -.00000453  00000-0 -34749-4 0  9998
2 26703  97.7044 298.5333 0003158 179.1177 181.0051 14.96597613 15894
Source of the keplerian elements: AFSPC